Time,TemperatureF,DewpointF,PressureIn,WindDirection,WindDirectionDegrees,WindSpeedMPH,WindSpeedGustMPH,Humidity,HourlyPrecipIn,Conditions,Clouds,dailyrainin,SoftwareType,DateUTC
2013-02-12 12:10:00,67.4,47.0,30.33,SSE,159,0.0,0.0,48,0.00,,,0.00,Wunderground v.1.15,2013-02-12 20:10:00,
2013-02-12 12:20:00,67.6,47.2,30.32,SSE,159,0.0,0.0,48,0.00,,,0.00,Wunderground v.1.15,2013-02-12 20:20:00,
2013-02-12 12:30:00,67.6,47.2,30.32,SSE,159,0.0,0.0,48,0.00,,,0.00,Wunderground v.1.15,2013-02-12 20:30:00,
2013-02-12 12:40:00,67.8,47.4,30.32,SSE,159,0.0,0.0,48,0.00,,,0.00,Wunderground v.1.15,2013-02-12 20:40:00,
2013-02-12 12:50:00,67.9,47.5,30.31,SSE,159,0.0,0.0,48,0.00,,,0.00,Wunderground v.1.15,2013-02-12 20:50:00,
2013-02-12 13:00:00,68.0,47.6,30.31,SSE,159,0.0,0.0,48,0.00,,,0.00,Wunderground v.1.15,2013-02-12 21:00:00,
2013-02-12 13:10:00,68.1,47.7,30.30,SSE,159,0.0,0.0,48,0.00,,,0.00,Wunderground v.1.15,2013-02-12 21:10:00,
2013-02-12 13:20:00,68.2,47.8,30.30,SSE,160,0.0,0.0,48,0.00,,,0.00,Wunderground v.1.15,2013-02-12 21:20:00,
2013-02-12 13:30:00,68.3,47.8,30.30,SSE,160,0.0,0.0,48,0.00,,,0.00,Wunderground v.1.15,2013-02-12 21:30:00,
2013-02-12 13:40:00,68.5,48.0,30.29,SSE,160,0.0,0.0,48,0.00,,,0.00,Wunderground v.1.15,2013-02-12 21:40:00,
2013-02-12 13:50:00,68.6,48.1,30.29,SSE,160,0.0,0.0,48,0.00,,,0.00,Wunderground v.1.15,2013-02-12 21:50:00,
2013-02-12 14:00:00,68.6,48.1,30.29,SSE,160,0.0,0.0,48,0.00,,,0.00,Wunderground v.1.15,2013-02-12 22:00:00,
2013-02-12 14:10:00,68.8,47.7,30.28,SSE,160,0.0,0.0,47,0.00,,,0.00,Wunderground v.1.15,2013-02-12 22:10:00,
2013-02-12 14:20:00,68.9,47.8,30.28,SSE,160,0.0,0.0,47,0.00,,,0.00,Wunderground v.1.15,2013-02-12 22:20:00,
2013-02-12 14:30:00,69.0,47.9,30.28,SSE,161,0.0,0.0,47,0.00,,,0.00,Wunderground v.1.15,2013-02-12 22:30:00,
2013-02-12 14:40:00,69.1,48.0,30.28,SSE,161,0.0,0.0,47,0.00,,,0.00,Wunderground v.1.15,2013-02-12 22:40:00,
2013-02-12 14:50:00,69.3,48.2,30.28,SSE,161,0.0,0.0,47,0.00,,,0.00,Wunderground v.1.15,2013-02-12 22:50:00,
2013-02-12 15:00:00,69.4,48.3,30.28,SSE,161,0.0,0.0,47,0.00,,,0.00,Wunderground v.1.15,2013-02-12 23:00:00,
2013-02-12 15:10:00,69.5,48.4,30.28,SSE,161,0.0,0.0,47,0.00,,,0.00,Wunderground v.1.15,2013-02-12 23:10:00,
2013-02-12 15:20:00,69.5,47.8,30.28,SSE,161,0.0,0.0,46,0.00,,,0.00,Wunderground v.1.15,2013-02-12 23:20:00,
2013-02-12 15:30:00,69.6,47.9,30.28,SSE,160,0.0,0.0,46,0.00,,,0.00,Wunderground v.1.15,2013-02-12 23:30:00,
2013-02-12 15:40:00,69.6,47.9,30.27,SSE,160,0.0,0.0,46,0.00,,,0.00,Wunderground v.1.15,2013-02-12 23:40:00,
2013-02-12 15:50:00,69.7,48.0,30.27,SSE,161,0.0,0.0,46,0.00,,,0.00,Wunderground v.1.15,2013-02-12 23:50:00,
2013-02-12 16:00:00,69.7,48.0,30.27,SSE,160,0.0,0.0,46,0.00,,,0.00,Wunderground v.1.15,2013-02-13 00:00:00,
2013-02-12 16:10:00,69.8,48.1,30.27,SSE,160,0.0,0.0,46,0.00,,,0.00,Wunderground v.1.15,2013-02-13 00:10:00,
2013-02-12 16:20:00,69.9,48.2,30.27,SSE,160,0.0,0.0,46,0.00,,,0.00,Wunderground v.1.15,2013-02-13 00:20:00,
2013-02-12 16:30:00,69.8,48.1,30.27,SSE,161,0.0,0.0,46,0.00,,,0.00,Wunderground v.1.15,2013-02-13 00:30:00,
2013-02-12 16:40:00,69.7,48.0,30.27,SSE,161,0.0,0.0,46,0.00,,,0.00,Wunderground v.1.15,2013-02-13 00:40:00,
2013-02-12 16:50:00,69.6,47.9,30.26,SSE,160,0.0,0.0,46,0.00,,,0.00,Wunderground v.1.15,2013-02-13 00:50:00,
2013-02-12 17:00:00,69.4,47.7,30.26,SSE,161,0.0,0.0,46,0.00,,,0.00,Wunderground v.1.15,2013-02-13 01:00:00,